Wind_Speed
18 15 13 11 10 8 7 7 7 6 6 6 5 4 4 4 4 4 4 4 4 3 3 2 2 2 2 2 3 3 3 4 5 6 7 8 9 10 12 13 14 15 16
20 17 15 13 11 10 9 8 8 7 7 6 6 5 5 5 5 4 4 4 4 4 3 3 3 2 2 2 2 3 3 4 5 6 7 8 9 11 12 13 14 15 16
21 19 17 15 13 11 10 10 9 9 8 8 7 6 6 6 5 5 5 5 4 4 4 4 3 3 3 3 3 3 3 4 5 6 7 9 10 11 12 13 15 16 17
23 20 18 16 14 13 12 11 11 10 9 9 9 8 7 7 6 6 6 5 5 5 4 4 4 4 3 3 3 3 4 5 6 7 8 9 10 11 13 14 15 17 18
25 22 20 18 16 14 13 13 12 11 11 10 10 9 9 8 8 7 6 6 6 5 5 5 4 4 4 4 4 4 4 5 6 7 8 10 11 12 14 15 16 18 19
27 24 22 19 17 16 15 14 13 13 12 12 11 11 10 9 9 8 7 7 6 6 6 5 5 4 4 4 4 4 5 5 6 8 9 10 12 13 15 16 18 19 20
28 26 23 21 19 17 16 15 14 14 13 13 13 12 11 11 10 9 8 8 7 7 6 6 5 5 4 4 5 5 5 6 7 9 10 11 13 14 16 17 19 20 22
30 27 25 22 20 19 18 17 16 15 15 15 14 14 13 12 11 10 9 9 8 8 7 7 6 6 5 5 5 6 6 7 8 10 11 12 14 15 17 19 20 22 23
32 29 26 24 22 20 19 18 17 16 16 16 16 15 14 13 12 12 11 10 9 9 8 8 7 7 6 6 6 7 8 8 9 11 12 14 15 17 18 20 22 23 24
34 31 28 25 23 22 20 19 18 18 17 17 17 16 15 15 14 13 12 12 11 10 10 9 8 8 7 7 7 8 9 10 11 12 13 15 16 18 20 21 23 24 25
35 32 30 27 25 23 22 20 19 19 19 18 18 17 16 16 15 14 13 13 12 11 11 10 10 9 9 9 9 10 11 12 13 14 15 16 18 20 21 23 24 26 27
35 33 31 29 26 24 23 22 21 20 20 20 19 18 18 17 16 15 15 14 13 13 12 12 11 11 11 11 11 12 13 14 15 16 17 18 20 21 23 25 26 27 28
37 35 33 30 28 25 24 23 22 21 21 21 21 20 19 19 18 17 16 15 15 14 13 13 13 13 13 13 13 14 15 15 17 18 19 20 22 23 25 26 28 29 29
37 35 34 31 28 26 25 24 23 22 22 22 22 21 21 21 20 19 18 17 16 16 15 15 15 15 15 16 16 17 17 18 19 20 22 23 24 26 27 29 29 30 31
37 34 33 32 30 28 26 25 24 24 23 23 23 23 22 22 21 21 20 19 18 18 17 17 17 17 18 18 19 19 20 21 22 23 24 26 27 29 30 31 32 32 32
38 36 34 33 32 30 29 27 26 25 24 24 24 24 23 23 23 23 22 21 21 20 20 19 20 20 20 21 21 22 23 23 24 25 26 28 29 30 32 33 33 33 33
39 39 36 35 33 32 30 29 28 27 26 26 25 25 25 25 25 25 24 24 23 23 23 22 22 23 23 23 24 25 26 26 27 28 29 30 31 32 33 34 34 35 35
42 40 38 37 36 34 32 32 31 29 28 27 27 27 27 27 27 26 26 26 26 26 26 26 26 26 26 26 27 28 28 29 30 30 32 33 33 34 35 35 36 36 36
43 42 40 39 39 36 34 33 32 30 30 29 29 29 29 29 29 29 28 28 28 28 28 28 29 29 29 29 30 30 31 31 32 33 34 35 36 36 37 37 37 37 36
42 42 42 40 40 38 36 35 33 32 32 31 31 31 30 30 31 31 31 31 31 31 31 31 32 32 32 32 32 33 33 34 35 36 37 38 38 39 39 39 38 38 38
43 43 43 43 40 38 36 35 35 34 33 33 34 33 33 33 33 33 33 33 33 34 34 35 35 35 35 35 35 35 36 37 38 39 40 40 41 41 40 40 40 39 38
43 42 42 42 42 40 38 36 37 37 36 35 35 35 35 35 35 35 36 36 36 36 37 37 38 38 38 39 39 39 39 39 41 41 42 42 42 42 41 41 40 40 39
44 44 42 40 40 39 39 38 37 38 37 37 37 37 37 37 37 37 38 38 39 39 39 40 41 41 41 41 42 43 42 42 42 41 42 43 43 43 41 40 40 39 39
44 43 43 42 42 41 39 39 37 37 38 38 39 38 38 39 40 40 40 41 41 42 42 43 43 43 43 43 44 44 45 45 45 44 43 43 43 43 42 40 40 39 38
43 43 43 42 43 43 42 41 40 39 40 40 39 39 40 40 40 41 41 42 42 43 44 44 45 45 45 45 45 46 47 47 47 47 45 44 44 43 42 41 40 39 38
43 43 43 43 43 44 44 44 43 42 42 42 43 43 42 42 43 43 42 43 44 45 45 45 46 46 47 47 48 48 48 48 48 48 47 46 45 44 42 41 41 40 40
Wind_Direction
217 217 219 219 218 216 215 216 220 221 222 225 226 228 236 245 257 266 274 282 288 287 283 286 307 328 343 353 358 5 16 21 18 15 12 8 5 4 2 359 357 356 354
217 218 219 218 217 217 215 216 218 219 218 220 223 227 235 244 252 260 266 271 277 277 276 278 286 299 314 332 345 352 3 8 6 4 2 360 359 359 358 356 355 353 351
217 218 219 219 218 218 217 217 217 219 219 219 222 228 234 243 250 257 262 264 268 269 270 273 280 291 305 320 331 341 350 354 356 355 355 355 356 356 355 353 351 349 348
216 217 218 219 218 218 218 217 218 220 221 220 223 229 235 242 247 253 258 261 263 265 267 272 279 287 297 308 319 329 338 344 348 350 351 354 353 352 350 349 347 345 344
216 216 217 218 218 218 218 218 220 221 221 222 224 229 234 240 244 249 255 258 261 263 267 272 277 283 293 303 314 322 332 338 343 346 349 349 348 346 345 345 343 342 341
215 216 217 218 218 218 219 220 220 221 222 223 226 229 234 239 243 247 252 257 260 262 266 270 273 278 289 300 310 317 325 332 338 341 342 343 343 343 343 341 340 339 338
214 215 217 218 219 219 220 221 220 221 223 225 227 231 235 240 243 246 249 254 258 261 263 266 269 274 284 294 303 311 318 326 332 335 337 338 339 340 339 338 338 337 336
212 214 216 218 219 220 221 222 222 223 225 227 229 232 235 239 242 244 247 252 255 258 260 263 267 273 281 290 299 307 314 322 328 332 335 335 336 336 336 336 336 335 334
212 214 216 217 219 220 222 223 224 226 228 229 231 234 236 238 241 244 247 250 252 255 258 262 267 273 279 287 296 305 312 318 324 328 331 333 334 333 333 333 333 332 332
211 213 214 216 218 220 223 225 226 227 230 232 233 235 237 240 242 245 248 250 252 255 258 262 267 272 279 286 294 302 308 314 320 323 326 329 330 330 330 330 330 330 330
210 212 214 216 218 220 223 226 227 229 232 234 235 237 239 242 244 246 249 251 254 257 260 265 268 272 277 284 292 299 305 310 314 317 321 324 326 327 327 327 327 327 327
210 212 214 216 218 221 224 226 228 231 233 235 238 240 242 244 246 248 250 252 255 259 262 267 271 274 278 283 290 296 301 306 310 313 316 319 321 322 323 324 325 325 325
211 211 214 216 218 221 224 226 229 232 234 237 239 241 243 245 247 249 251 254 257 260 264 268 272 276 280 284 288 293 297 302 307 310 312 315 317 319 320 321 322 322 322
213 212 214 216 219 223 225 227 230 233 235 237 240 242 244 247 249 251 253 256 259 262 265 268 272 276 281 284 288 293 297 300 303 306 309 312 314 316 317 318 319 319 319
214 214 215 218 222 224 226 229 232 235 237 239 241 243 245 247 250 252 255 257 260 263 267 270 274 278 281 285 288 291 295 298 301 304 307 309 311 313 314 315 316 317 316
219 217 218 220 224 226 229 231 233 236 239 241 243 244 246 248 251 254 256 258 261 264 267 271 275 279 281 284 287 290 292 295 298 301 303 306 308 310 311 312 313 314 314
224 222 221 224 227 230 232 233 235 238 242 243 245 247 248 249 251 254 257 259 262 265 269 272 275 278 280 283 286 289 291 293 296 298 301 304 306 307 309 310 310 311 311
227 227 227 227 230 232 234 237 239 240 243 246 248 249 250 252 253 255 258 260 263 266 269 272 275 278 281 283 285 288 290 292 294 297 300 302 303 304 306 307 308 308 308
229 229 229 229 230 232 235 239 242 244 246 248 250 252 253 255 256 257 259 261 263 266 269 272 275 278 280 281 284 287 289 291 294 296 299 300 301 303 304 305 306 305 306
232 231 232 233 233 233 236 238 242 246 248 249 252 254 256 257 258 259 261 263 265 267 270 272 275 277 279 281 284 286 289 291 293 295 297 298 300 301 302 303 303 303 304
234 235 236 235 237 238 240 243 244 246 250 251 252 254 257 259 260 262 264 265 267 269 271 273 275 277 279 280 283 285 288 290 291 293 295 296 298 300 301 301 302 302 303
234 235 237 238 240 241 242 245 246 247 250 253 255 256 258 260 261 263 265 266 269 271 272 274 275 277 279 280 282 284 286 289 291 292 294 295 297 298 299 300 300 300 300
238 240 241 243 244 246 247 247 249 249 252 254 255 257 259 260 262 263 265 268 270 272 273 274 275 277 279 281 283 284 285 287 288 290 291 293 295 296 297 297 297 297 298
240 243 245 248 248 249 250 250 252 252 253 256 257 259 261 262 263 264 266 268 270 272 274 275 276 278 279 281 283 285 286 288 289 289 290 291 293 294 295 295 295 296 297
241 244 246 249 249 250 250 252 253 256 256 257 259 261 263 265 266 266 267 269 271 273 274 276 277 278 280 282 284 286 287 288 288 289 290 291 292 293 294 294 294 295 295
241 243 246 248 250 251 253 254 255 257 258 259 261 264 265 267 268 269 270 272 272 274 275 277 278 279 281 282 284 285 287 287 288 288 289 290 291 292 292 292 293 293 294
Height
5880 5882 5884 5885 5886 5887 5888 5889 5890 5891 5892 5892 5893 5893 5893 5893 5893 5893 5892 5892 5891 5891 5890 5890 5889 5888 5888 5887 5886 5885 5885 5884 5883 5882 5881 5880 5879 5877 5876 5874 5873 5871 5869
5878 5880 5882 5884 5885 5886 5887 5888 5889 5890 5891 5891 5892 5892 5892 5892 5892 5892 5892 5891 5891 5890 5890 5889 5888 5888 5887 5886 5886 5885 5884 5883 5883 5882 5881 5880 5878 5877 5875 5874 5872 5870 5868
5876 5878 5880 5882 5883 5884 5886 5887 5888 5889 5890 5890 5891 5891 5891 5892 5892 5891 5891 5891 5890 5889 5889 5888 5888 5887 5887 5886 5885 5884 5884 5883 5882 5881 5880 5879 5877 5876 5875 5873 5871 5869 5867
5873 5875 5877 5879 5881 5883 5884 5885 5886 5887 5888 5889 5890 5890 5890 5891 5891 5890 5890 5890 5889 5889 5888 5888 5887 5887 5886 5885 5884 5883 5883 5882 5881 5880 5879 5878 5876 5875 5874 5872 5870 5868 5866
5869 5872 5875 5877 5879 5881 5882 5884 5885 5886 5887 5888 5888 5889 5889 5889 5889 5889 5889 5889 5888 5888 5888 5887 5887 5886 5885 5884 5883 5883 5882 5881 5880 5879 5878 5877 5875 5874 5872 5870 5868 5866 5864
5866 5869 5871 5874 5876 5878 5880 5881 5883 5884 5885 5886 5887 5887 5888 5888 5888 5888 5888 5888 5887 5887 5886 5886 5886 5885 5884 5883 5883 5882 5881 5880 5879 5878 5877 5876 5874 5872 5871 5869 5867 5864 5862
5862 5865 5868 5871 5873 5876 5877 5879 5881 5882 5883 5884 5885 5886 5886 5887 5887 5887 5886 5886 5886 5886 5885 5885 5885 5884 5883 5882 5882 5881 5880 5879 5878 5877 5875 5874 5872 5870 5869 5867 5865 5862 5860
5858 5861 5864 5867 5870 5873 5875 5877 5878 5880 5881 5882 5883 5884 5884 5885 5885 5885 5885 5885 5885 5884 5884 5884 5883 5883 5882 5881 5880 5880 5878 5877 5876 5875 5874 5872 5870 5869 5867 5865 5862 5860 5857
5853 5857 5860 5864 5867 5869 5872 5874 5875 5877 5878 5880 5881 5881 5882 5883 5883 5883 5883 5883 5883 5883 5882 5882 5882 5881 5880 5880 5879 5878 5877 5876 5874 5873 5872 5870 5868 5866 5864 5862 5860 5857 5854
5848 5852 5856 5859 5863 5866 5868 5870 5872 5874 5876 5877 5878 5879 5880 5880 5881 5881 5881 5881 5881 5881 5880 5880 5880 5879 5879 5878 5877 5876 5875 5874 5872 5871 5869 5868 5866 5864 5862 5859 5857 5854 5851
5842 5847 5852 5855 5859 5862 5864 5867 5869 5871 5873 5874 5875 5876 5877 5878 5878 5878 5879 5879 5879 5878 5878 5878 5877 5877 5876 5876 5875 5874 5873 5871 5870 5869 5867 5865 5863 5861 5859 5856 5854 5851 5848
5838 5842 5847 5851 5854 5858 5861 5863 5865 5867 5869 5871 5872 5873 5874 5875 5875 5875 5876 5876 5876 5876 5876 5875 5875 5874 5874 5873 5872 5871 5870 5869 5867 5866 5864 5862 5860 5858 5855 5853 5850 5847 5844
5832 5837 5842 5846 5850 5853 5856 5859 5861 5863 5865 5867 5868 5869 5870 5871 5872 5872 5873 5873 5873 5873 5873 5872 5872 5872 5871 5870 5869 5868 5867 5866 5864 5862 5860 5859 5857 5854 5852 5849 5846 5843 5839
5827 5831 5836 5840 5845 5848 5852 5855 5857 5859 5861 5863 5864 5865 5867 5868 5868 5869 5869 5870 5870 5870 5869 5869 5869 5868 5868 5867 5866 5865 5863 5862 5860 5859 5857 5854 5852 5850 5847 5844 5841 5838 5835
5823 5827 5831 5835 5839 5843 5847 5850 5852 5855 5857 5858 5860 5861 5863 5864 5865 5865 5866 5866 5866 5866 5866 5865 5865 5865 5864 5863 5862 5861 5859 5858 5856 5854 5852 5850 5847 5845 5842 5839 5836 5833 5829
5818 5822 5826 5830 5834 5838 5841 5844 5847 5850 5852 5853 5855 5857 5858 5859 5860 5861 5862 5862 5862 5862 5862 5861 5861 5860 5860 5859 5858 5856 5855 5854 5852 5850 5848 5845 5843 5840 5837 5834 5831 5827 5824
5814 5817 5821 5826 5829 5832 5836 5839 5841 5844 5846 5848 5850 5852 5853 5854 5855 5856 5857 5857 5857 5857 5857 5857 5856 5856 5855 5854 5853 5852 5850 5848 5847 5845 5842 5840 5837 5834 5831 5828 5825 5821 5818
5808 5812 5816 5821 5824 5826 5830 5833 5835 5838 5840 5842 5844 5846 5847 5849 5850 5851 5851 5852 5852 5852 5852 5852 5851 5851 5850 5849 5848 5846 5844 5843 5841 5838 5836 5834 5831 5828 5825 5822 5819 5815 5811
5802 5806 5810 5814 5818 5821 5823 5826 5829 5832 5834 5836 5838 5840 5841 5842 5844 5844 5845 5846 5846 5846 5846 5846 5846 5845 5844 5843 5842 5840 5838 5836 5834 5831 5829 5826 5824 5821 5818 5815 5812 5808 5805
5795 5799 5804 5807 5811 5814 5816 5819 5823 5825 5828 5829 5831 5833 5834 5836 5837 5838 5838 5839 5839 5839 5839 5839 5839 5838 5837 5836 5835 5833 5831 5829 5827 5824 5822 5819 5816 5813 5811 5807 5804 5801 5797
5788 5792 5797 5800 5804 5807 5810 5812 5815 5818 5820 5822 5824 5825 5827 5828 5830 5831 5831 5832 5832 5832 5832 5832 5831 5831 5829 5828 5828 5826 5824 5822 5819 5816 5814 5811 5808 5805 5802 5799 5796 5792 5789
5782 5785 5789 5793 5797 5800 5802 5805 5808 5811 5813 5815 5816 5818 5819 5820 5822 5823 5824 5824 5824 5824 5824 5823 5823 5822 5821 5820 5819 5818 5817 5815 5811 5808 5805 5802 5799 5796 5793 5790 5787 5784 5781
5775 5779 5782 5785 5789 5792 5795 5798 5800 5802 5804 5806 5808 5810 5811 5812 5813 5814 5815 5815 5815 5815 5815 5814 5814 5814 5813 5811 5809 5808 5807 5806 5803 5800 5796 5793 5790 5788 5785 5782 5779 5776 5773
5767 5771 5775 5778 5781 5784 5787 5790 5792 5794 5796 5798 5800 5801 5802 5803 5804 5805 5805 5806 5806 5806 5805 5805 5804 5804 5803 5801 5799 5798 5796 5794 5792 5791 5788 5784 5781 5778 5776 5773 5770 5767 5764
5760 5764 5767 5770 5773 5776 5779 5781 5784 5786 5788 5789 5791 5792 5793 5794 5794 5795 5795 5796 5796 5796 5796 5795 5794 5794 5792 5791 5789 5788 5786 5783 5781 5779 5778 5774 5771 5769 5766 5763 5760 5757 5754
5752 5756 5759 5762 5765 5768 5770 5772 5775 5777 5778 5780 5782 5783 5783 5784 5785 5785 5786 5786 5786 5786 5786 5785 5784 5783 5782 5780 5779 5777 5775 5773 5770 5768 5766 5764 5761 5758 5756 5753 5750 5747 5745